GLOBALSTAR M079 (37188 NORAD) Tracking and Keplerian Element Data

This shows tracking and keplerian element data for the satellite.

Feedback or suggestion? Click here.




ElementValue
Catalog37188
NameGLOBALSTAR M079
Epoch Orbit66026
Epoch Day34.59759472
Epoch Year2025
RAAN186.4547
Inclination52.0018
Eccentricity9.68E-05
Argument of Perigee83.0544
Mean Anonmoly356.0823
Mean Motion12.62270442
Decay Rate-9.3E-07
L11 37188U 10054A 25034.59759472 -.00000093 00000+0 60036-4 0 9990
L22 37188 52.0018 186.4547 0000968 83.0544 356.0823 12.62270442660264



Live tracking and technical data element details for GLOBALSTAR M079 (NORAD 37188). GLOBALSTAR M079 can be tracked NOW for your location showing map with azimuth and elevation plus other details from your city location.







IsCatalogInMostPopularTable: catalog: 37188, numindb: 339
Update: records affected: 1



GetName: 37188 GLOBALSTAR M079

Hit Count: updated at: Thu, 15 May 2025 10:10:50 GMT